Other Public Products
Issued by NWS Grand Forks, ND

Home | Current Version | Previous Version | Graphics & Text | Print | Product List | Glossary On
Versions: 1 2 3 4 5 6 7 8 9 10 11 12 13 14 15 16 17 18 19 20 21 22 23 24 25 26 27 28 29 30 31 32 33 34 35 36 37 38 39 40 41 42 43 44 45 46 47 48 49 50
000
FPUS83 KFGF 011231
OPUFGF
PRAIRIE TO PINES WEATHER ROUNDUP
NATIONAL WEATHER SERVICE EASTERN NORTH DAKOTA/GRAND FORKS ND
700 AM CDT WED OCT 01 2014

 **SATELLITE DATA USED TO AUGMENT SKY COVER AT AUTOMATED STATIONS**
 *****  WEATHER ACROSS EASTERN NORTH DAKOTA  *****

CITY           SKY/WX    TMP DP  RH WIND       PRES   REMARKS
GRAND FORKS    CLOUDY    60  53  77 SW12G21   29.55R
6HR MIN TEMP:  59; 6HR MAX TEMP:  62;

GRAND FORKS AF CLOUDY    58  54  86 SW14      29.54R
GRAND CITY NWS   N/A     57 N/A N/A S20         N/A
BUXTON           N/A     59  56  89 S13         N/A
DEVILS LAKE    CLOUDY    55  46  71 SW17      29.50R
6HR MIN TEMP:  55; 6HR MAX TEMP:  57; 6HR PCP:  0.01;

FARGO          CLEAR     59  55  87 S14       29.62R
6HR MIN TEMP:  59; 6HR MAX TEMP:  63; 6HR PCP: TRACE;

WAHPETON ARPT  MOSUNNY   57  54  88 S9        29.67R
$$

 *****  WEATHER ACROSS CENTRAL AND WESTERN NORTH DAKOTA  *****

CITY           SKY/WX    TMP DP  RH WIND       PRES   REMARKS
JAMESTOWN      PTCLDY    55  51  86 SW13      29.58R
6HR MIN TEMP:  55; 6HR MAX TEMP:  59;

BISMARCK       PTCLDY    56  52  86 W16       29.60R
6HR MIN TEMP:  53; 6HR MAX TEMP:  57;

MINOT          CLOUDY    53  51  93 SW8       29.47R
6HR MIN TEMP:  51; 6HR MAX TEMP:  53; 6HR PCP:  0.03;

MINOT AFB      CLOUDY    52  52 100 W6        29.47R
6HR MIN TEMP:  49; 6HR MAX TEMP:  52; 6HR PCP:  0.02;

GARRISON         N/A     54  52  93 W17       29.53R
6HR MIN TEMP:  51; 6HR MAX TEMP:  55; 6HR PCP:  0.01;

WILLISTON      CLOUDY    54  49  83 W20       29.57R
6HR MIN TEMP:  52; 6HR MAX TEMP:  55; 6HR PCP:  0.03;

DICKINSON      CLOUDY    52  48  86 W21G28    29.63R
6HR MIN TEMP:  52; 6HR MAX TEMP:  54;

HETTINGER      CLOUDY    53  50  89 W16       29.70R
6HR MIN TEMP:  51; 6HR MAX TEMP:  53; 6HR PCP: TRACE;

$$

 *****  OTHER OBSERVATIONS NORTHEAST NORTH DAKOTA  *****

CITY           SKY/WX    TMP DP  RH WIND       PRES   REMARKS
WALHALLA       NOT AVBL
LANGDON        CLOUDY    54  50  87 SW17G24   29.47R
CAVALIER       CLOUDY    57  52  82 S14G23    29.48R
GRAFTON        CLOUDY    57  52  82 S20G25    29.51R
CANDO          CLOUDY    52  50  93 SW14      29.49R
FORT TOTTEN    NOT AVBL
ROLLA          CLOUDY    50  50 100 SW16G23   29.46R
RUGBY          CLOUDY    50  50 100 SW9       29.49R
 ***** THE ABOVE OBSERVATIONS ARE NON NWS ARE NOT QUALITY
        CONTROLLED AND MAY MIS-REPORT RAIN FOR SNOW...
$$

 *****  OTHER OBSERVATIONS SOUTHEAST NORTH DAKOTA *****

CITY           SKY/WX    TMP DP  RH WIND       PRES   REMARKS
COOPERSTOWN    NOT AVBL
VALLEY CITY    FAIR      54  54 100 SW16G22   29.60R
OAKES            N/A     54  54 100 S10       29.64S
GWINNER          N/A     55  54  94 SW9       29.65R
BUFFALO          N/A     56  50  80 S12         N/A
WYNDMERE         N/A     57  55  94 S5          N/A
 ***** THE ABOVE OBSERVATIONS ARE NON NWS ARE NOT QUALITY
       CONTROLLED AND MAY MIS-REPORT RAIN FOR SNOW...
$$

  *****  WEATHER ACROSS NORTHERN MINNESOTA  *****

CITY           SKY/WX    TMP DP  RH WIND       PRES   REMARKS
FLAG ISLAND    CLOUDY    54  50  87 S33G39    29.58F
WARROAD        CLOUDY    55  52  88 S18G25    29.58F
ROSEAU         CLOUDY    59  52  77 S20G26    29.56S
HALLOCK        MOCLDY    59  52  77 S18       29.50R
THF RVR FALLS  CLOUDY    61  54  77 S18G31    29.58R
6HR MIN TEMP:  57; 6HR MAX TEMP:  61;

HALSTAD          N/A     58  55  91 S14         N/A
FOSSTON        MOCLDY    55  52  88 SE17G23   29.63S
BAUDETTE       CLOUDY    52  47  83 SE9G17    29.66F
6HR MIN TEMP:  47; 6HR MAX TEMP:  52;

WASKISH        MOCLDY    52  48  87 SE15G22   29.69S
CROOKSTON      CLOUDY    61  54  77 SW20G26   29.59R
$$
  *****  WEATHER ACROSS CENTRAL AND WEST MINNESOTA  *****

CITY           SKY/WX    TMP DP  RH WIND       PRES   REMARKS
BEMIDJI        CLOUDY    53  49  89 S14G20    29.70S
PARK RAPIDS    CLOUDY    51  51 100 SE20      29.73R
6HR MIN TEMP:  50; 6HR MAX TEMP:  53;

WADENA         CLOUDY    52  52 100 SE10      29.73S
DETROIT LAKES  CLOUDY    59  55  88 S9        29.69R
MOORHEAD       NOT AVBL
FERGUS FALLS   MOCLDY    61  57  88 S10       29.69R
ELBOW LAKE     CLOUDY    58  57  96 SE16      29.70R
6HR MIN TEMP:  58; 6HR MAX TEMP:  59;

MORRIS MN      CLOUDY    59  57  94 SE9       29.71S FOG
STAPLES        CLOUDY    50  48  93 SE8       29.76R FOG
WHEATON        PTCLDY    57  55  94 SE8       29.70R
$$
  *****  WEATHER ELSEWHERE ACROSS MINNESOTA  *****

CITY           SKY/WX    TMP DP  RH WIND       PRES   REMARKS
DULUTH         CLOUDY    47  43  86 SE12      29.86S
6HR MIN TEMP:  47; 6HR MAX TEMP:  49;

INTRNTL FALLS  CLOUDY    51  46  83 VRB6G17   29.74S
6HR MIN TEMP:  45; 6HR MAX TEMP:  51;

ELY            CLOUDY    48  45  87 SE7       29.83F
CLOQUET        CLOUDY    46  43  87 SE6       29.86R
BRAINERD       CLOUDY    50  47  89 SE10      29.79R
6HR MIN TEMP:  48; 6HR MAX TEMP:  50;

HIBBING        CLOUDY    49  44  83 SE13      29.82F
6HR MIN TEMP:  47; 6HR MAX TEMP:  50;

ALEXANDRIA     CLOUDY    55  54  96 SE14      29.75R FOG
6HR MIN TEMP:  52; 6HR MAX TEMP:  58;

SAINT CLOUD    CLOUDY    53  46  77 SE9       29.80S
6HR MIN TEMP:  52; 6HR MAX TEMP:  54; 6HR PCP: TRACE;

MINNEAPOLIS    LGT RAIN  50  46  86 SE12      29.84S
6HR MIN TEMP:  50; 6HR MAX TEMP:  52; 6HR PCP: TRACE;

$$

  *****  WEATHER ACROSS SOUTH DAKOTA  *****

CITY           SKY/WX    TMP DP  RH WIND       PRES   REMARKS
SIOUX FALLS    LGT RAIN  63  61  93 S8        29.73R
6HR MIN TEMP:  62; 6HR MAX TEMP:  63; 6HR PCP: TRACE;

BROOKINGS      NOT AVBL
WATERTOWN      CLOUDY    60  59  96 S8        29.71R
6HR MIN TEMP:  59; 6HR MAX TEMP:  61;

HURON          CLOUDY    61  59  93 S7        29.70R FOG
6HR MIN TEMP:  60; 6HR MAX TEMP:  62;

SISSETON         N/A     61  59  93 SW13      29.66R
ABERDEEN       MOCLDY    53  50  89 S6        29.66S
6HR MIN TEMP:  53; 6HR MAX TEMP:  60;

MITCHELL       CLOUDY    62  60  93 CALM      29.71S
PIERRE         MOCLDY    54  47  77 W9        29.71R
6HR MIN TEMP:  52; 6HR MAX TEMP:  57;

MOBRIDGE       PTCLDY    55  51  86 W9        29.66R
RAPID CITY     MOCLDY    50  45  83 CALM      29.77R
6HR MIN TEMP:  48; 6HR MAX TEMP:  53;

$$

  *****  SOME WEATHER IN NEARBY STATES *****

CITY           SKY/WX    TMP DP  RH WIND       PRES   REMARKS
GLASGOW MT     CLOUDY    49  45  86 W14G24    29.71R
6HR MIN TEMP:  49; 6HR MAX TEMP:  54; 6HR PCP: TRACE;

GREAT FALLS MT LGT RAIN  43  41  93 SW9       29.93R
6HR MIN TEMP:  42; 6HR MAX TEMP:  44; 6HR PCP:  0.01;

CHEYENNE WY    CLOUDY    49  36  61 NW8       29.90F
6HR MIN TEMP:  44; 6HR MAX TEMP:  50;

SCOTTSBLUFF NE CLEAR     43  42  97 NW7       29.86R
6HR MIN TEMP:  43; 6HR MAX TEMP:  57;

OMAHA NE       LGT RAIN  62  59  90 SE10      29.73R
6HR MIN TEMP:  62; 6HR MAX TEMP:  66; 6HR PCP:  0.75;

DES MOINES IA  TSTM      59  57  93 SE14G25   29.77F FOG
6HR MIN TEMP:  59; 6HR MAX TEMP:  65; 6HR PCP:  1.13;

DAVENPORT IA   NOT AVBL
CHICAGO IL     PTCLDY    50  45  83 SE8       30.01R
6HR MIN TEMP:  49; 6HR MAX TEMP:  55;

EAU CLAIRE WI  LGT RAIN  48  44  86 SE10      29.93R
6HR MIN TEMP:  47; 6HR MAX TEMP:  48; 6HR PCP: TRACE;

LA CROSSE WI   CLOUDY    51  45  79 SE8       29.93F
6HR MIN TEMP:  49; 6HR MAX TEMP:  51;

$$

  *****  SOME NATIONAL WEATHER *****

CITY           SKY/WX    TMP DP  RH WIND       PRES   REMARKS
LA GUARDIA NY  LGT RAIN  63  57  82 NE9G20    30.02S
6HR MIN TEMP:  61; 6HR MAX TEMP:  62; 6HR PCP: TRACE;




USA.gov is the U.S. government's official web portal to all federal, state and local government web resources and services.